TimeCDT,TemperatureF,Dew PointF,Humidity,Sea Level PressureIn,VisibilityMPH,Wind Direction,Wind SpeedMPH,Gust SpeedMPH,PrecipitationIn,Events,Conditions,WindDirDegrees,DateUTC
12:55 AM,67.5,65.7,94,29.84,10.0,North,6.9,-,N/A,,Overcast,360,2011-10-12 05:55:00
1:55 AM,67.1,65.3,94,29.83,10.0,North,8.1,-,N/A,,Overcast,10,2011-10-12 06:55:00
2:15 AM,66.2,64.4,94,29.83,10.0,North,8.1,-,N/A,,Mostly Cloudy,360,2011-10-12 07:15:00
2:55 AM,66.7,65.3,95,29.83,10.0,North,9.2,-,N/A,,Overcast,360,2011-10-12 07:55:00
3:06 AM,66.2,64.4,94,29.83,10.0,North,5.8,-,N/A,,Scattered Clouds,10,2011-10-12 08:06:00
3:08 AM,66.2,64.4,94,29.83,10.0,North,6.9,-,N/A,,Mostly Cloudy,10,2011-10-12 08:08:00
3:32 AM,66.2,64.4,94,29.83,10.0,North,3.5,-,N/A,,Overcast,10,2011-10-12 08:32:00
3:55 AM,65.7,64.8,97,29.83,10.0,North,4.6,-,N/A,,Mostly Cloudy,10,2011-10-12 08:55:00
3:59 AM,66.2,64.4,94,29.83,10.0,NNE,3.5,-,N/A,,Scattered Clouds,20,2011-10-12 08:59:00
4:55 AM,64.2,63.9,99,29.83,10.0,North,5.8,-,N/A,,Clear,360,2011-10-12 09:55:00
5:50 AM,64.4,64.4,100,29.83,10.0,NNE,4.6,-,N/A,,Partly Cloudy,20,2011-10-12 10:50:00
5:55 AM,63.7,63.7,100,29.83,10.0,NNE,5.8,-,N/A,,Scattered Clouds,20,2011-10-12 10:55:00
5:59 AM,64.4,64.4,100,29.83,10.0,NNE,5.8,-,N/A,,Mostly Cloudy,20,2011-10-12 10:59:00
6:02 AM,64.4,64.4,100,29.84,10.0,North,6.9,-,N/A,,Mostly Cloudy,10,2011-10-12 11:02:00
6:55 AM,64.6,64.6,100,29.86,10.0,Calm,Calm,-,N/A,,Overcast,0,2011-10-12 11:55:00
7:16 AM,64.4,64.4,100,29.85,10.0,NNE,6.9,-,N/A,,Overcast,30,2011-10-12 12:16:00
7:55 AM,65.3,65.3,100,29.86,10.0,NNE,6.9,-,N/A,,Overcast,20,2011-10-12 12:55:00
8:20 AM,66.2,66.2,100,29.87,10.0,NNE,5.8,-,N/A,,Overcast,30,2011-10-12 13:20:00
8:21 AM,66.2,66.2,100,29.85,10.0,NE,6.9,-,N/A,,Mostly Cloudy,40,2011-10-12 13:21:00
8:50 AM,68.0,64.4,88,29.87,10.0,NNE,6.9,-,N/A,,Overcast,20,2011-10-12 13:50:00
8:55 AM,67.5,64.9,92,29.87,10.0,NNE,5.8,-,N/A,,Overcast,30,2011-10-12 13:55:00
9:30 AM,69.8,64.4,83,29.87,10.0,Variable,6.9,-,N/A,,Mostly Cloudy,0,2011-10-12 14:30:00
9:32 AM,69.8,64.4,83,29.85,10.0,North,4.6,-,N/A,,Mostly Cloudy,350,2011-10-12 14:32:00
9:34 AM,69.8,64.4,83,29.87,10.0,North,5.8,-,N/A,,Scattered Clouds,10,2011-10-12 14:34:00
9:50 AM,71.6,64.4,78,29.86,10.0,Variable,4.6,-,N/A,,Mostly Cloudy,0,2011-10-12 14:50:00
9:55 AM,71.8,64.4,77,29.87,10.0,NNE,4.6,-,N/A,,Scattered Clouds,20,2011-10-12 14:55:00
9:57 AM,71.6,64.4,78,29.87,10.0,NNE,4.6,-,N/A,,Mostly Cloudy,20,2011-10-12 14:57:00
10:04 AM,71.6,64.4,78,29.87,10.0,NNW,5.8,-,N/A,,Scattered Clouds,340,2011-10-12 15:04:00
10:43 AM,75.2,64.4,69,29.86,10.0,North,5.8,-,N/A,,Mostly Cloudy,360,2011-10-12 15:43:00
10:44 AM,75.2,64.4,69,29.84,10.0,North,5.8,-,N/A,,Mostly Cloudy,350,2011-10-12 15:44:00
10:55 AM,74.5,64.2,70,29.86,10.0,WNW,5.8,-,N/A,,Mostly Cloudy,300,2011-10-12 15:55:00
10:56 AM,75.2,64.4,69,29.86,10.0,NW,4.6,-,N/A,,Mostly Cloudy,320,2011-10-12 15:56:00
11:06 AM,73.4,64.4,73,29.86,10.0,Calm,Calm,-,N/A,,Mostly Cloudy,0,2011-10-12 16:06:00
11:07 AM,73.4,64.4,73,29.85,10.0,Calm,Calm,-,N/A,,Mostly Cloudy,0,2011-10-12 16:07:00
11:09 AM,75.2,64.4,69,29.85,10.0,North,3.5,-,N/A,,Light Drizzle,360,2011-10-12 16:09:00
11:10 AM,75.2,64.4,69,29.84,10.0,North,3.5,-,N/A,,Light Drizzle,10,2011-10-12 16:10:00
11:18 AM,75.2,64.4,69,29.85,10.0,West,3.5,-,N/A,,Overcast,280,2011-10-12 16:18:00
11:55 AM,73.4,65.7,77,29.85,10.0,SSE,8.1,-,0.00,,Overcast,160,2011-10-12 16:55:00
11:56 AM,73.4,66.2,78,29.85,10.0,SSE,10.4,-,N/A,,Light Drizzle,160,2011-10-12 16:56:00
11:58 AM,73.4,66.2,78,29.85,10.0,SSE,8.1,-,N/A,,Overcast,160,2011-10-12 16:58:00
12:12 PM,73.4,66.2,78,29.85,10.0,South,8.1,-,N/A,,Overcast,180,2011-10-12 17:12:00
12:15 PM,73.4,66.2,78,29.85,10.0,South,8.1,-,N/A,,Overcast,190,2011-10-12 17:15:00
12:16 PM,73.4,66.2,78,29.85,10.0,South,8.1,-,N/A,,Overcast,190,2011-10-12 17:16:00
12:29 PM,73.4,66.2,78,29.83,10.0,South,3.5,-,N/A,,Overcast,170,2011-10-12 17:29:00
12:59 PM,75.2,66.2,73,29.83,10.0,Variable,6.9,-,N/A,,Overcast,0,2011-10-12 17:59:00
1:17 PM,75.2,66.2,73,29.81,10.0,Variable,3.5,-,N/A,,Mostly Cloudy,0,2011-10-12 18:17:00
1:55 PM,75.2,66.2,73,29.81,10.0,Variable,4.6,-,N/A,,Overcast,0,2011-10-12 18:55:00
2:23 PM,73.4,66.2,78,29.80,10.0,SSW,4.6,-,N/A,,Mostly Cloudy,200,2011-10-12 19:23:00
2:59 PM,75.2,66.2,73,29.81,10.0,Variable,3.5,-,N/A,,Mostly Cloudy,0,2011-10-12 19:59:00
3:44 PM,75.2,66.2,73,29.79,10.0,SW,6.9,-,N/A,,Mostly Cloudy,220,2011-10-12 20:44:00
3:59 PM,75.2,66.2,73,29.79,10.0,WSW,4.6,-,N/A,,Mostly Cloudy,240,2011-10-12 20:59:00
4:55 PM,75.2,66.2,73,29.79,10.0,NW,2.3,-,N/A,,Mostly Cloudy,320,2011-10-12 21:55:00
5:57 PM,73.4,66.2,78,29.79,10.0,West,6.9,-,N/A,,Mostly Cloudy,260,2011-10-12 22:57:00
6:57 PM,73.4,66.2,78,29.81,10.0,West,4.6,-,N/A,,Overcast,280,2011-10-12 23:57:00
7:55 PM,69.6,66.0,88,29.81,10.0,NE,3.5,-,N/A,,Mostly Cloudy,40,2011-10-13 00:55:00
7:59 PM,69.8,66.2,88,29.81,10.0,NNE,3.5,-,N/A,,Mostly Cloudy,30,2011-10-13 00:59:00
8:55 PM,68.9,65.8,90,29.83,10.0,NNE,3.5,-,N/A,,Mostly Cloudy,20,2011-10-13 01:55:00
9:10 PM,68.0,66.2,94,29.83,10.0,Calm,Calm,-,N/A,,Mostly Cloudy,0,2011-10-13 02:10:00
9:23 PM,68.0,64.4,88,29.83,10.0,NE,3.5,-,N/A,,Scattered Clouds,50,2011-10-13 02:23:00
9:55 PM,68.0,64.9,90,29.83,10.0,ENE,3.5,-,N/A,,Clear,70,2011-10-13 02:55:00
10:55 PM,67.5,64.6,90,29.83,10.0,ENE,3.5,-,N/A,,Clear,70,2011-10-13 03:55:00
11:55 PM,63.9,63.5,99,29.82,10.0,Calm,Calm,-,N/A,,Clear,0,2011-10-13 04:55:00